Location: Unnamed
(23.5608°S, 46.6833°W)
Time: 06:56:47
(UTC-03:00)

Tiros 4 - Pass Details

Date: 14 December 2023
Orbit: 683 x 793 km, 48.3° (Epoch: 21 February)

Event Time Altitude Azimuth Distance (km) Brightness Sun altitude
Rises 19:58:30 0° 335° (NNW) 3,162 10.1 -14.7°
Reaches altitude 10° 20:01:00 10° 343° (NNW) 2,263 9.3 -15.2°
Maximum altitude 20:05:55 39° 51° (NE) 1,137 7.4 -16.1°
Drops below altitude 10° 20:10:59 10° 118° (ESE) 2,342 9.3 -17.1°
Sets 20:13:37 0° 125° (SE) 3,286 10.1 -17.5°
